Weather History for Cumberland, MD

Change the Weather History Date:

Saturday, April 12, 2014

  Actual Average (KMRB) Record (KMRB)
Temperature  
Mean Temperature 60 °F 51 °F  
Max Temperature 78 °F 63 °F 90 °F (1930)
Min Temperature 42 °F 40 °F 24 °F (1982)
Degree Days  
Heating Degree Days 5 14  
Month to date heating degree days 186  
Since 1 July heating degree days 4856  
Cooling Degree Days 0 0  
Month to date cooling degree days 0  
Year to date cooling degree days 1  
Growing Degree Days 10 (Base 50)    
Moisture  
Dew Point 40 °F    
Average Humidity 56    
Maximum Humidity 100    
Minimum Humidity 17    
Precipitation  
Precipitation 0.00 in 0.11 in 1.41 in (1951)
Month to date precipitation 1.35  
Year to date precipitation 9.65  
Sea Level Pressure  
Sea Level Pressure 30.18 in    
Wind  
Wind Speed 4 mph (SE)    
Max Wind Speed 13 mph    
Max Gust Speed 18 mph    
Visibility 9 miles    
Events      
T = Trace of Precipitation, MM = Missing Value Source: NWS Daily Summary

Daily Weather History Graph

Daily Weather History Graph

Search for Another Location

Airport:

Trip Planner

Search our weather history database for the weather conditions in past years. The results will help you decide how hot, cold, wet, or windy it might be!

Date:

Astronomy

Apr. 12, 2014 Rise Set
Actual Time 6:42 AM EDT 7:50 PM EDT
Civil Twilight 6:14 AM EDT 8:17 PM EDT
Nautical Twilight 5:41 AM EDT 8:50 PM EDT
Astronomical Twilight 5:07 AM EDT 9:25 PM EDT
Moon 5:27 PM EDT (4/12) 5:07 AM EDT (4/12)
Length of Visible Light 14h 03m
Length of Day
13h 07m
Waxing Gibbous, 93% of the Moon is Illuminated
Apr 12
Waxing Gibbous
Apr 15
Full
Apr 22
Last Quarter
Apr 29
New
May 6
First Quarter

Hourly Weather History & Observations

Time (EDT) Temp. Windchill Dew Point Humidity Pressure Visibility Wind Dir Wind Speed Gust Speed Precip Events Conditions
12:02 AM 53.6 °F - 50.0 °F 88% 30.11 in 10.0 mi North 5.8 mph - N/A   Mostly Cloudy
12:22 AM 53.6 °F - 50.0 °F 88% 30.12 in 10.0 mi NNE 3.5 mph - N/A   Mostly Cloudy
12:42 AM 51.8 °F - 50.0 °F 94% 30.12 in 10.0 mi Calm Calm - N/A   Mostly Cloudy
1:02 AM 51.8 °F - 48.2 °F 88% 30.12 in 10.0 mi NNW 3.5 mph - N/A   Scattered Clouds
1:22 AM 51.8 °F - 48.2 °F 88% 30.13 in 10.0 mi NNW 5.8 mph - N/A   Scattered Clouds
1:42 AM 51.8 °F - 50.0 °F 94% 30.13 in 10.0 mi North 3.5 mph - N/A   Mostly Cloudy
2:02 AM 50.0 °F - 46.4 °F 87% 30.14 in 10.0 mi Calm Calm - N/A   Scattered Clouds
2:22 AM 50.0 °F - 48.2 °F 94% 30.15 in 10.0 mi Calm Calm - N/A   Scattered Clouds
2:42 AM 50.0 °F - 46.4 °F 87% 30.16 in 10.0 mi Calm Calm - N/A   Scattered Clouds
3:02 AM 50.0 °F - 46.4 °F 87% 30.16 in 10.0 mi Calm Calm - N/A   Clear
3:22 AM 48.2 °F - 46.4 °F 93% 30.16 in 7.0 mi Calm Calm - N/A   Clear
3:42 AM 46.4 °F - 46.4 °F 100% 30.17 in 1.8 mi Calm Calm - N/A   Unknown
4:02 AM 48.2 °F - 46.4 °F 93% 30.17 in 7.0 mi North 3.5 mph - N/A   Clear
4:22 AM 46.4 °F - 44.6 °F 93% 30.18 in 4.0 mi Calm Calm - N/A   Clear
4:42 AM 44.6 °F - 44.6 °F 100% 30.19 in 4.0 mi Calm Calm - N/A   Clear
5:02 AM 44.6 °F - 42.8 °F 93% 30.20 in 1.2 mi Calm Calm - N/A   Unknown
5:22 AM 44.6 °F 43.1 °F 44.6 °F 100% 30.20 in 1.5 mi WNW 3.5 mph - N/A   Unknown
5:42 AM 44.6 °F 42.2 °F 44.6 °F 100% 30.22 in 3.0 mi NNW 4.6 mph - N/A   Clear
6:02 AM 42.8 °F 40.1 °F 42.8 °F 100% 30.23 in 10.0 mi NNE 4.6 mph - N/A   Clear
6:22 AM 42.8 °F 40.1 °F 42.8 °F 100% 30.23 in 10.0 mi North 4.6 mph - N/A   Clear
6:42 AM 42.8 °F 40.1 °F 42.8 °F 100% 30.25 in 10.0 mi NNW 4.6 mph - N/A   Clear
7:03 AM 42.8 °F 39.3 °F 42.8 °F 100% 30.26 in 10.0 mi North 5.8 mph - N/A   Clear
7:23 AM 42.8 °F 41.1 °F 42.8 °F 100% 30.27 in 10.0 mi North 3.5 mph - N/A   Clear
7:43 AM 44.6 °F 42.2 °F 44.6 °F 100% 30.27 in 10.0 mi North 4.6 mph - N/A   Clear
8:03 AM 46.4 °F 45.2 °F 44.6 °F 93% 30.28 in 10.0 mi NNE 3.5 mph - N/A   Clear
8:23 AM 46.4 °F - 42.8 °F 87% 30.28 in 10.0 mi Calm Calm - N/A   Clear
8:43 AM 46.4 °F - 44.6 °F 93% 30.28 in 10.0 mi Calm Calm - N/A   Clear
9:03 AM 50.0 °F - 44.6 °F 82% 30.28 in 10.0 mi Calm Calm - N/A   Clear
9:23 AM 51.8 °F - 44.6 °F 76% 30.29 in 10.0 mi Calm Calm - N/A   Clear
9:43 AM 51.8 °F - 46.4 °F 82% 30.29 in 10.0 mi Calm Calm - N/A   Clear
10:03 AM 55.4 °F - 46.4 °F 72% 30.29 in 10.0 mi Calm Calm - N/A   Clear
10:23 AM 59.0 °F - 46.4 °F 63% 30.29 in 10.0 mi Calm Calm - N/A   Clear
10:43 AM 60.8 °F - 46.4 °F 59% 30.30 in 10.0 mi SSE 4.6 mph - N/A   Clear
11:03 AM 62.6 °F - 44.6 °F 52% 30.30 in 10.0 mi SE 5.8 mph - N/A   Clear
11:23 AM 64.4 °F - 39.2 °F 40% 30.29 in 10.0 mi SSE 5.8 mph - N/A   Clear
11:43 AM 66.2 °F - 35.6 °F 32% 30.29 in 10.0 mi SSE 5.8 mph - N/A   Clear
12:03 PM 68.0 °F - 33.8 °F 28% 30.28 in 10.0 mi SSE 8.1 mph - N/A   Clear
12:23 PM 68.0 °F - 33.8 °F 28% 30.27 in 10.0 mi South 5.8 mph - N/A   Clear
12:43 PM 69.8 °F - 33.8 °F 27% 30.26 in 10.0 mi South 4.6 mph - N/A   Clear
1:03 PM 69.8 °F - 32.0 °F 25% 30.25 in 10.0 mi SSE 10.4 mph - N/A   Clear
1:23 PM 71.6 °F - 32.0 °F 23% 30.23 in 10.0 mi ESE 9.2 mph - N/A   Clear
1:43 PM 71.6 °F - 30.2 °F 22% 30.22 in 10.0 mi SW 3.5 mph - N/A   Clear
2:03 PM 71.6 °F - 28.4 °F 20% 30.20 in 10.0 mi SSE 9.2 mph - N/A   Clear
2:23 PM 73.4 °F - 30.2 °F 20% 30.18 in 10.0 mi South 9.2 mph - N/A   Clear
2:43 PM 73.4 °F - 30.2 °F 20% 30.17 in 10.0 mi SE 8.1 mph 16.1 mph N/A   Clear
3:03 PM 75.2 °F - 32.0 °F 21% 30.16 in 10.0 mi SSW 3.5 mph - N/A   Clear
3:23 PM 75.2 °F - 30.2 °F 19% 30.15 in 10.0 mi East 9.2 mph - N/A   Clear
3:43 PM 77.0 °F - 30.2 °F 18% 30.14 in 10.0 mi ESE 9.2 mph - N/A   Clear
4:04 PM 77.0 °F - 30.2 °F 18% 30.13 in 10.0 mi SE 10.4 mph - N/A   Clear
4:24 PM 77.0 °F - 30.2 °F 18% 30.13 in 10.0 mi SE 5.8 mph - N/A   Clear
4:44 PM 77.0 °F - 30.2 °F 18% 30.12 in 10.0 mi SE 8.1 mph - N/A   Clear
5:04 PM 78.8 °F - 30.2 °F 17% 30.12 in 10.0 mi East 4.6 mph - N/A   Clear
5:24 PM 77.0 °F - 30.2 °F 18% 30.11 in 10.0 mi South 5.8 mph - N/A   Clear
5:44 PM 78.8 °F - 32.0 °F 18% 30.11 in 10.0 mi SE 6.9 mph - N/A   Clear
6:04 PM 77.0 °F - 32.0 °F 19% 30.10 in 10.0 mi SE 6.9 mph - N/A   Clear
6:24 PM 75.2 °F - 35.6 °F 24% 30.10 in 10.0 mi ESE 10.4 mph - N/A   Clear
6:44 PM 73.4 °F - 33.8 °F 23% 30.10 in 10.0 mi East 8.1 mph - N/A   Clear
7:04 PM 75.2 °F - 35.6 °F 24% 30.10 in 10.0 mi SE 4.6 mph - N/A   Scattered Clouds
7:24 PM 73.4 °F - 37.4 °F 27% 30.09 in 10.0 mi East 12.7 mph 18.4 mph N/A   Mostly Cloudy
7:44 PM 71.6 °F - 33.8 °F 25% 30.09 in 10.0 mi ESE 5.8 mph - N/A   Scattered Clouds
8:04 PM 71.6 °F - 33.8 °F 25% 30.10 in 10.0 mi SE 5.8 mph - N/A   Scattered Clouds
8:24 PM 69.8 °F - 35.6 °F 28% 30.10 in 10.0 mi ESE 5.8 mph - N/A   Scattered Clouds
8:44 PM 69.8 °F - 35.6 °F 28% 30.10 in 10.0 mi Calm Calm - N/A   Scattered Clouds
9:04 PM 69.8 °F - 35.6 °F 28% 30.11 in 10.0 mi Calm Calm - N/A   Scattered Clouds
9:24 PM 68.0 °F - 37.4 °F 33% 30.11 in 10.0 mi Calm Calm - N/A   Clear
9:44 PM 68.0 °F - 37.4 °F 33% 30.11 in 10.0 mi Calm Calm - N/A   Clear
10:04 PM 66.2 °F - 37.4 °F 35% 30.11 in 10.0 mi Calm Calm - N/A   Clear
10:24 PM 66.2 °F - 39.2 °F 37% 30.10 in 10.0 mi SW 4.6 mph - N/A   Clear
10:44 PM 64.4 °F - 41.0 °F 42% 30.10 in 10.0 mi WSW 4.6 mph - N/A   Clear
11:04 PM 64.4 °F - 41.0 °F 42% 30.09 in 10.0 mi WSW 3.5 mph - N/A   Clear
11:24 PM 64.4 °F - 42.8 °F 45% 30.09 in 10.0 mi SW 4.6 mph - N/A   Clear
11:44 PM 62.6 °F - 42.8 °F 48% 30.09 in 10.0 mi SW 4.6 mph - N/A   Clear